Time,TemperatureF,DewpointF,PressureIn,WindDirection,WindDirectionDegrees,WindSpeedMPH,WindSpeedGustMPH,Humidity,HourlyPrecipIn,Conditions,Clouds,dailyrainin,SoftwareType,DateUTC
2013-01-02 00:00:00,16.0,-99.9,-100.00,NE,38,5.0,8.0,-999,-99.99,,,0.00,,2013-01-02 08:00:00,
2013-01-02 00:53:00,16.0,-99.9,-100.00,NE,38,5.0,8.0,-999,-99.99,,,0.00,,2013-01-02 08:53:00,
2013-01-02 01:00:00,13.0,-99.9,-100.00,NE,34,6.0,9.0,-999,-99.99,,,0.00,,2013-01-02 09:00:00,
2013-01-02 01:53:00,13.0,-99.9,-100.00,NE,34,6.0,9.0,-999,-99.99,,,0.00,,2013-01-02 09:53:00,
2013-01-02 02:00:00,11.0,-99.9,-100.00,NE,40,6.0,12.0,-999,-99.99,,,0.00,,2013-01-02 10:00:00,
2013-01-02 02:53:00,11.0,-99.9,-100.00,NE,40,6.0,12.0,-999,-99.99,,,0.00,,2013-01-02 10:53:00,
2013-01-02 03:00:00,12.0,-99.9,-100.00,NNE,31,7.0,10.0,-999,-99.99,,,0.00,,2013-01-02 11:00:00,
2013-01-02 03:53:00,12.0,-99.9,-100.00,NNE,31,7.0,10.0,-999,-99.99,,,0.00,,2013-01-02 11:53:00,
2013-01-02 04:00:00,6.0,-99.9,-100.00,NNE,23,7.0,12.0,-999,-99.99,,,0.00,,2013-01-02 12:00:00,
2013-01-02 04:53:00,6.0,-99.9,-100.00,NNE,23,7.0,12.0,-999,-99.99,,,0.00,,2013-01-02 12:53:00,
2013-01-02 05:00:00,5.0,-99.9,-100.00,NNE,21,9.0,11.0,-999,-99.99,,,-99.99,,2013-01-02 13:00:00,
2013-01-02 05:53:00,5.0,-99.9,-100.00,NNE,21,9.0,11.0,-999,-99.99,,,-99.99,,2013-01-02 13:53:00,
2013-01-02 06:00:00,13.0,-99.9,-100.00,NNE,24,8.0,10.0,-999,-99.99,,,0.00,,2013-01-02 14:00:00,
2013-01-02 06:53:00,13.0,-99.9,-100.00,NNE,24,8.0,10.0,-999,-99.99,,,0.00,,2013-01-02 14:53:00,
2013-01-02 07:00:00,4.0,-99.9,-100.00,NNE,25,9.0,11.0,-999,-99.99,,,-99.99,,2013-01-02 15:00:00,
2013-01-02 07:53:00,4.0,-99.9,-100.00,NNE,25,9.0,11.0,-999,-99.99,,,-99.99,,2013-01-02 15:53:00,
2013-01-02 08:00:00,8.0,-99.9,-100.00,NNE,24,9.0,11.0,-999,-99.99,,,0.00,,2013-01-02 16:00:00,
2013-01-02 08:54:00,8.0,-99.9,-100.00,NNE,24,9.0,11.0,-999,-99.99,,,0.00,,2013-01-02 16:54:00,
2013-01-02 09:00:00,9.0,-99.9,-100.00,NNE,26,8.0,12.0,-999,-99.99,,,-99.99,,2013-01-02 17:00:00,
2013-01-02 09:54:00,9.0,-99.9,-100.00,NNE,26,8.0,12.0,-999,-99.99,,,-99.99,,2013-01-02 17:54:00,
2013-01-02 10:00:00,15.0,-99.9,-100.00,NNE,26,11.0,15.0,-999,-99.99,,,0.00,,2013-01-02 18:00:00,
2013-01-02 10:54:00,15.0,-99.9,-100.00,NNE,26,11.0,15.0,-999,-99.99,,,0.00,,2013-01-02 18:54:00,
2013-01-02 11:00:00,19.0,-99.9,-100.00,NNE,24,11.0,15.0,-999,-99.99,,,-99.99,,2013-01-02 19:00:00,
2013-01-02 11:53:00,19.0,-99.9,-100.00,NNE,24,11.0,15.0,-999,-99.99,,,-99.99,,2013-01-02 19:53:00,
2013-01-02 12:00:00,24.0,-99.9,-100.00,NNE,23,11.0,15.0,-999,-99.99,,,-99.99,,2013-01-02 20:00:00,
2013-01-02 12:53:00,24.0,-99.9,-100.00,NNE,23,11.0,15.0,-999,-99.99,,,-99.99,,2013-01-02 20:53:00,
2013-01-02 13:00:00,34.0,-99.9,-100.00,SW,232,2.0,10.0,-999,-99.99,,,0.00,,2013-01-02 21:00:00,
2013-01-02 13:53:00,34.0,-99.9,-100.00,SW,232,2.0,10.0,-999,-99.99,,,0.00,,2013-01-02 21:53:00,
2013-01-02 14:00:00,31.0,-99.9,-100.00,SSW,201,1.0,5.0,-999,-99.99,,,0.00,,2013-01-02 22:00:00,
2013-01-02 14:53:00,31.0,-99.9,-100.00,SSW,201,1.0,5.0,-999,-99.99,,,0.00,,2013-01-02 22:53:00,
2013-01-02 17:00:00,19.0,-99.9,-100.00,ENE,65,2.0,7.0,-999,-99.99,,,0.00,,2013-01-03 01:00:00,
2013-01-02 17:53:00,19.0,-99.9,-100.00,ENE,65,2.0,7.0,-999,-99.99,,,0.00,,2013-01-03 01:53:00,
2013-01-02 19:00:00,21.0,-99.9,-100.00,NNE,22,7.0,11.0,-999,-99.99,,,-99.99,,2013-01-03 03:00:00,
2013-01-02 19:53:00,21.0,-99.9,-100.00,NNE,22,7.0,11.0,-999,-99.99,,,-99.99,,2013-01-03 03:53:00,
2013-01-02 20:00:00,15.0,-99.9,-100.00,NNE,31,7.0,9.0,-999,-99.99,,,0.00,,2013-01-03 04:00:00,
2013-01-02 20:53:00,15.0,-99.9,-100.00,NNE,31,7.0,9.0,-999,-99.99,,,0.00,,2013-01-03 04:53:00,
2013-01-02 21:00:00,15.0,-99.9,-100.00,NNE,23,8.0,10.0,-999,-99.99,,,0.00,,2013-01-03 05:00:00,
2013-01-02 21:53:00,15.0,-99.9,-100.00,NNE,23,8.0,10.0,-999,-99.99,,,0.00,,2013-01-03 05:53:00,
2013-01-02 22:00:00,14.0,-99.9,-100.00,NNE,27,8.0,11.0,-999,-99.99,,,0.00,,2013-01-03 06:00:00,
2013-01-02 22:53:00,14.0,-99.9,-100.00,NNE,27,8.0,11.0,-999,-99.99,,,0.00,,2013-01-03 06:53:00,
2013-01-02 23:00:00,14.0,-99.9,-100.00,NNE,32,6.0,10.0,-999,-99.99,,,0.00,,2013-01-03 07:00:00,
2013-01-02 23:53:00,14.0,-99.9,-100.00,NNE,32,6.0,10.0,-999,-99.99,,,0.00,,2013-01-03 07:53:00,